SCP
0 0 0 0 0 0 0 0 0 0 0 0 0 0 0 0 0 0 0 0 0 0 0 0 0 0 0 0 0 0 0 0 0 0 0 0 0 0 0 0 0 0 0
0 0 0 0 0 0 0 0 0 0 0 0 0 0 0 0 0 0 0 0 0 0 0 0 0 0 0 0 0 0 0 0 0 0 0 0 0 0 0 0 0 0 0
0 0 0 0 0 0 0 0 0 0 0 0 0 0 0 0 0 0 0 0 0 0 0 0 0 0 0 0 0 0 0 0 0 0 0 0 0 0 0 0 0 0 0
0 0 0 0 0 0 0 0 0 0 0 0 0 0 0 0 0 0 0 0 0 0 0 0 0 0 0 0 0 0 0 0 0 0 0 0 0 0 0 0 0 0 0
0 0 0 0 0 0 0 0 0 0 0 0 0 0 0 0 0 0 0 0 0 0 0 0 0 0 0 0 0 0 0 0 0 0 0 0 0 0 0 0 0 0 0
0 0 0 0 0 0 0 0 0 0 0 0 0 0 0 0 0 0 0 0 0 0 0 0 0 0 0 0 0 0 0 0 0 0 0 0 0 0 0 0 0 0 0
0 0 0 0 0 0 0 0 0 0 0 0 0 0 0 0 0 0 0 0 0 0 0 0 0 0 0 0 0 0 0 0 0 0 0 0 0 0 0 0 0 0 0
0 0 0 0 0 0 0 0 0 0 0 0 0 0 0 0 0 0 0 0 0 0 0 0 0 0 0 0 0 0 0 0 0 0 0 0 0 0 0 0 0 0 0
0 0 0 0 0 0 0 0 0 0 0 0 0 0 0 0 0 0 0 0 0 0 0 0 0 0 0 0 0 0 0 0 0 0 0 0 0 0 0 0 0 0 0
0 0 0 0 0 0 0 0 0 0 0 0 0 0 0 0 0 0 0 0 0 0 0 0 0 0 0 0 0 0 0 0 0 0 0 0 0 0 0 0 0 0 0
0 0 0 0 0 0 0 0 0 0 0 0 0 0 0 0 0 0 0 0 0 0 0 0 0 0 0 0 0 0 0 0 0 0 0 0 0 0 0 0 0 0 0
0 0 0 0 0 0 0 0 0 0 0 0 0 0 0 0 0 0 0 0 0 0 0 0 0 0 0 0 0 0 0 0 0 0 0 0 0 0 0 0 0 0 0
0 0 0 0 0 0 0 0 0 0 0 0 0 0 0 0 0 0 0 0 0 0 0 0 0 0 0 0 0 0 0 0 0 0 0 0 0 0 0 0 0 0 0
0 0 0 0 0 0 0 0 0 0 0 0 0 0 0 0 0 0 0 0 0 0 0 0 0 0 0 0 0 0 0 0 0 0 0 0 0 0 0 0 0 0 0
0 0 0 0 0 0 0 0 0 0 0 0 0 0 0 0 0 0 0 0 0 0 0 0 0 0 0 0 0 0 0 0 0 0 0 0 0 0 0 0 0 0 0
0 0 0 0 0 0 0 0 0 0 0 0 0 0 0 0 0 0 0 0 0 0 0 0 0 0 0 0 0 0 0 0 0 0 0 0 0 0 0 0 0 0 0
0 0 0 0 0 0 0 0 0 0 0 0 0 0 0 0 0 0 0 0 0 0 0 0 0 0 0 0 0 0 0 0 0 0 0 0 0 0 0 0 0 0 0
0 0 0 0 0 0 0 0 0 0 0 0 0 0 0 0 0 0 0 0 0 0 0 0 0 0 0 0 0 0 0 0 0 0 0 0 0 0 0 0 0 0 0
0 0 0 0 0 0 0 0 0 0 0 0 0 0 0 0 0 0 0 0 0 0 0 0 0 0 0 0 0 0 0 0 0 0 0 0 0 0 0 0 0 0 0
0 0 0 0 0 0 0 0 0 0 0 0 0 0 0 0 0 0 0 0 0 0 0 0 0 0 0 0 0 0 0 0 0 0 0 0 0 0 0 0 0 0 0
0 0 0 0 0 0 0 0 0 0 0 0 0 0 0 0 0 0 0 0 0 0 0 0 0 0 0 0 0 0 0 0 0 0 0 0 0 0 0 0 0 0 0
0 0 0 0 0 0 0 0 0 0 0 0 0 0 0 0 0 0 0 0 0 0 0 0 0 0 0 0 0 0 -0 0 -0 0 0 0 0 0 0 0 0 0 0
0 0 0 0 0 0 0 0 0 0 0 0 0 0 0 0 0 0 0 0 0 0 0 0 0 0 0 0 0 0 0 0 0 0 0 0 0 0 0 0 0 0 0
0 0 0 0 0 0 0 0 0 0 0 0 0 0 0 0 0 0 0 0 0 0 0 0 0 0 0 0 0 0 0 0 0 0 0 0 0 0 0 0 0 0 0
0 0 0 0 0 0 0 0 0 0 0 0 0 0 0 0 0 0 0 0 0 0 0 0 0 0 0 0 0 0 0 0 0 0 0 0 0 0 -0 0 0 0 0
0 0 0 0 0 0 0 0 0 0 0 0 0 0 0 0 0 0 0 0 0 0 0 0 0 0 0 0 0 0 0 0 0 0 0 0 0 0 0 0 0 0 0
Wind_Speed_500mb
30 21 28 31 26 22 20 17 11 11 14 11 15 22 25 27 27 26 26 27 27 28 28 29 29 30 30 28 25 22 21 19 17 19 20 20 22 23 24 19 23 24 27
17 11 14 16 17 16 16 14 13 10 12 16 18 22 28 27 25 26 26 27 28 28 29 30 31 31 30 29 27 26 23 22 22 19 18 17 19 20 24 23 24 25 27
2 6 9 14 17 19 17 16 16 13 14 18 21 23 24 26 28 31 33 35 35 34 34 35 36 36 34 32 32 31 29 26 24 21 20 18 22 22 25 31 27 28 29
3 7 11 12 12 14 14 13 14 16 18 20 23 26 29 32 34 36 37 37 36 36 37 36 36 36 35 35 34 33 35 35 32 30 26 24 23 24 34 37 35 31 31
7 7 6 9 14 13 16 20 21 24 26 28 30 32 34 36 38 38 37 37 37 37 37 38 38 39 39 40 39 38 39 38 36 35 34 33 33 31 37 46 39 37 38
3 7 13 17 20 22 24 27 29 30 31 33 34 35 35 35 36 35 35 35 35 35 35 37 39 38 38 39 39 40 40 41 40 38 36 36 39 40 37 45 39 38 40
12 15 15 19 24 28 32 35 35 34 32 31 31 32 31 31 31 33 34 36 36 36 37 37 38 40 42 43 43 43 43 41 41 41 40 40 39 39 41 46 43 42 40
16 17 21 26 32 36 37 33 32 30 30 30 30 29 28 29 30 34 33 35 37 39 41 42 42 43 43 44 44 44 45 45 45 44 42 43 42 40 43 45 45 43 43
24 24 28 32 32 34 35 36 31 30 28 28 29 27 27 27 29 32 31 34 35 37 38 39 40 42 44 45 44 45 46 45 45 45 45 45 43 42 42 43 43 45 44
30 30 32 29 27 23 27 30 31 29 27 29 27 26 26 27 31 33 33 35 35 34 34 34 33 36 39 43 43 42 43 46 48 45 41 42 42 44 47 47 48 47 47
30 32 31 27 23 22 25 24 28 30 27 33 33 29 28 28 28 28 30 32 35 38 40 41 42 43 45 47 49 51 51 49 48 49 49 49 50 49 46 46 48 51 51
32 40 29 27 26 25 28 28 27 29 29 33 31 28 27 28 28 29 32 36 39 42 44 48 50 52 53 56 57 56 57 58 59 58 55 52 50 49 48 49 50 53 51
44 36 29 27 29 29 28 30 29 28 27 29 29 27 30 33 35 38 42 45 49 53 54 56 57 59 62 62 64 64 64 62 63 63 64 62 59 55 51 52 54 56 55
33 31 30 28 28 30 32 30 29 26 26 30 34 35 37 40 43 47 51 54 57 60 62 63 66 67 68 67 67 68 68 68 68 68 68 65 64 61 59 58 59 59 59
29 28 29 31 31 32 30 28 28 27 30 32 37 40 43 46 49 52 54 57 60 63 65 69 70 73 75 76 76 76 75 74 73 73 73 71 69 70 64 64 63 62 62
29 29 28 32 30 30 32 32 32 34 33 38 39 43 47 51 56 59 61 61 62 65 68 71 73 76 77 77 79 78 80 81 81 78 76 75 72 72 69 63 65 67 65
34 32 28 32 34 33 35 34 33 35 39 39 42 48 53 56 60 63 63 66 69 73 75 75 78 78 81 81 83 84 84 84 82 81 74 73 73 73 74 71 68 66 68
32 32 32 33 37 35 36 35 36 37 40 47 47 52 55 61 65 63 70 73 75 78 78 78 77 80 80 82 85 84 85 85 86 86 83 81 78 74 71 67 65 64 67
32 32 32 36 40 38 37 38 37 39 40 44 46 51 56 62 63 69 76 78 78 81 78 75 78 76 80 81 83 80 81 87 87 85 82 75 72 66 62 65 65 67 67
33 33 34 37 40 42 43 41 41 43 46 48 53 56 55 55 59 73 77 82 82 80 78 78 80 78 75 78 79 82 82 76 80 71 53 46 47 38 36 41 44 49 55
35 33 35 37 42 44 45 49 51 54 55 58 60 58 55 62 69 74 78 78 81 73 74 80 77 78 75 73 72 74 67 80 37 38 59 46 46 50 55 64 55 57 57
33 31 34 39 43 47 48 51 54 58 62 63 63 63 66 69 75 76 75 76 65 69 77 72 73 76 72 60 59 73 66 68 44 22 48 71 78 79 67 69 66 57 51
32 33 35 42 48 49 48 54 60 64 69 72 72 75 75 77 76 76 72 71 73 74 72 71 71 69 70 64 63 55 55 51 75 76 63 69 61 63 80 75 56 56 61
29 33 38 46 50 48 48 54 60 64 67 69 72 75 77 76 74 70 71 71 72 69 67 68 65 67 69 71 65 62 65 71 72 81 64 66 60 59 62 71 68 69 67
27 32 38 43 40 42 48 54 59 60 63 70 74 76 78 78 77 77 72 67 62 67 74 74 68 68 67 69 70 72 69 69 69 66 75 67 63 65 59 65 75 74 66
22 31 35 34 34 41 53 55 55 61 66 71 73 77 81 81 77 68 61 64 66 64 75 77 68 67 65 66 70 74 73 68 68 65 66 69 66 70 67 56 69 72 67
Wind_Direction_500mb
72 50 51 57 59 65 67 71 60 10 345 330 326 320 328 336 337 337 337 334 333 332 331 330 330 331 332 332 328 320 313 308 301 294 289 286 281 284 283 278 270 261 257
78 65 18 17 4 9 17 14 17 15 353 332 321 327 335 335 336 334 333 331 330 325 322 319 317 316 317 317 316 315 314 311 307 300 290 279 272 279 286 280 273 266 261
63 56 15 10 16 10 9 3 356 344 324 323 333 336 331 329 328 327 326 325 324 321 318 317 315 313 311 309 307 306 305 304 302 301 294 274 270 276 283 287 283 268 259
136 47 2 5 7 350 341 340 338 332 326 322 321 321 321 321 318 317 318 318 317 316 314 312 311 311 310 307 304 302 302 302 302 300 294 283 263 269 276 280 283 278 269
59 18 338 337 329 331 331 330 329 322 318 316 316 314 315 315 316 317 318 320 320 320 319 317 315 314 313 311 308 305 302 300 299 297 295 288 276 258 260 273 280 279 276
286 277 308 327 321 324 323 320 317 314 310 308 308 308 310 311 311 311 313 314 315 315 313 312 312 311 310 308 308 306 304 301 299 296 292 287 284 281 271 274 275 273 274
275 301 308 307 314 320 324 325 322 319 317 314 310 308 310 311 311 310 312 312 313 313 312 311 310 310 309 308 307 305 303 300 298 296 295 290 285 281 276 279 279 275 271
289 296 306 316 319 319 316 317 322 321 317 316 313 312 312 309 311 309 315 314 315 314 313 313 313 311 309 307 306 304 302 301 297 294 290 287 286 283 280 278 280 278 276
286 292 301 309 320 325 324 327 327 324 318 315 311 317 312 314 311 310 313 312 313 313 315 313 314 311 309 306 306 303 300 298 296 295 293 289 286 282 281 279 278 279 278
282 295 310 313 315 316 311 320 320 320 322 310 317 322 320 311 309 316 321 318 322 325 325 323 328 322 319 315 309 307 304 301 300 297 292 286 286 285 282 280 280 276 276
273 297 310 313 314 315 312 313 315 317 312 315 320 323 320 319 322 325 328 328 328 328 325 322 321 319 318 316 313 311 309 307 303 299 294 290 285 284 280 279 279 278 276
271 294 306 316 318 321 321 317 314 313 312 317 322 328 330 332 334 332 328 325 325 322 320 319 318 317 314 312 310 306 304 303 302 300 297 293 291 286 282 278 277 277 276
272 288 308 316 322 325 324 324 321 319 320 318 321 327 328 328 327 327 326 325 324 322 320 318 315 313 312 311 309 307 305 302 298 296 293 294 293 288 283 279 277 275 274
277 295 309 317 321 321 323 321 322 320 321 319 320 323 322 323 323 323 324 323 321 320 319 318 317 315 312 311 308 305 302 300 298 295 292 288 287 286 283 280 278 276 274
281 295 305 311 315 322 319 323 315 314 314 316 318 319 318 319 319 319 321 324 324 323 321 319 317 315 314 312 309 307 304 300 295 292 289 286 283 281 281 279 276 276 274
285 297 304 308 314 313 314 312 312 313 315 317 318 316 318 322 322 323 323 324 322 320 319 317 315 313 309 307 304 302 300 298 297 295 291 288 282 277 275 277 276 275 273
290 293 302 307 309 310 311 314 312 315 317 317 318 318 320 320 319 321 322 324 323 320 319 317 314 312 310 309 306 304 302 299 297 295 295 290 286 281 278 276 275 275 273
277 285 298 300 302 308 312 312 314 317 315 314 318 318 319 319 320 321 322 322 320 318 318 317 316 313 310 308 306 305 303 303 302 299 295 294 294 290 285 282 278 275 270
280 284 293 297 302 306 310 311 314 311 309 310 313 317 320 319 321 320 319 318 320 320 320 320 319 316 313 311 309 307 302 301 300 299 302 301 292 288 284 275 271 269 267
288 287 290 295 297 307 308 308 305 303 308 314 320 322 322 319 313 312 317 319 322 323 320 321 319 318 316 314 311 307 307 307 302 305 296 304 294 292 278 274 279 275 270
296 287 289 294 303 308 308 308 308 316 320 321 322 323 321 312 314 319 320 322 321 319 316 316 315 315 313 314 312 311 306 306 302 293 296 289 287 285 285 290 292 286 279
300 293 296 299 308 308 308 311 319 322 322 321 323 320 320 322 323 323 322 318 319 311 309 313 312 311 308 309 307 306 312 303 316 295 291 298 295 300 296 292 296 296 290
305 301 300 306 309 309 313 317 317 318 319 323 324 324 325 323 323 321 320 318 311 311 312 310 310 308 304 302 303 296 302 295 304 300 296 298 302 290 294 302 293 287 286
291 293 298 304 308 312 314 315 319 321 323 323 322 324 323 324 323 323 320 317 316 314 313 309 308 304 305 303 301 293 287 290 294 303 299 296 297 293 294 297 295 292 289
286 294 297 300 302 304 310 315 319 320 321 322 324 324 324 326 326 325 324 320 315 306 305 306 307 304 302 300 298 298 292 289 289 290 299 301 300 296 285 289 299 299 293
290 291 294 302 305 308 311 315 319 322 325 326 327 327 328 327 327 325 324 317 312 309 306 308 304 301 301 299 297 296 293 285 288 290 292 298 300 297 301 298 298 298 295
Wind_Speed_850mb
30 21 28 31 26 22 20 17 11 11 14 11 15 22 25 27 27 26 26 27 27 28 28 29 29 30 30 28 25 22 21 19 17 19 20 20 22 23 24 19 23 24 27
17 11 14 16 17 16 16 14 13 10 12 16 18 22 28 27 25 26 26 27 28 28 29 30 31 31 30 29 27 26 23 22 22 19 18 17 19 20 24 23 24 25 27
2 6 9 14 17 19 17 16 16 13 14 18 21 23 24 26 28 31 33 35 35 34 34 35 36 36 34 32 32 31 29 26 24 21 20 18 22 22 25 31 27 28 29
3 7 11 12 12 14 14 13 14 16 18 20 23 26 29 32 34 36 37 37 36 36 37 36 36 36 35 35 34 33 35 35 32 30 26 24 23 24 34 37 35 31 31
7 7 6 9 14 13 16 20 21 24 26 28 30 32 34 36 38 38 37 37 37 37 37 38 38 39 39 40 39 38 39 38 36 35 34 33 33 31 37 46 39 37 38
3 7 13 17 20 22 24 27 29 30 31 33 34 35 35 35 36 35 35 35 35 35 35 37 39 38 38 39 39 40 40 41 40 38 36 36 39 40 37 45 39 38 40
12 15 15 19 24 28 32 35 35 34 32 31 31 32 31 31 31 33 34 36 36 36 37 37 38 40 42 43 43 43 43 41 41 41 40 40 39 39 41 46 43 42 40
16 17 21 26 32 36 37 33 32 30 30 30 30 29 28 29 30 34 33 35 37 39 41 42 42 43 43 44 44 44 45 45 45 44 42 43 42 40 43 45 45 43 43
24 24 28 32 32 34 35 36 31 30 28 28 29 27 27 27 29 32 31 34 35 37 38 39 40 42 44 45 44 45 46 45 45 45 45 45 43 42 42 43 43 45 44
30 30 32 29 27 23 27 30 31 29 27 29 27 26 26 27 31 33 33 35 35 34 34 34 33 36 39 43 43 42 43 46 48 45 41 42 42 44 47 47 48 47 47
30 32 31 27 23 22 25 24 28 30 27 33 33 29 28 28 28 28 30 32 35 38 40 41 42 43 45 47 49 51 51 49 48 49 49 49 50 49 46 46 48 51 51
32 40 29 27 26 25 28 28 27 29 29 33 31 28 27 28 28 29 32 36 39 42 44 48 50 52 53 56 57 56 57 58 59 58 55 52 50 49 48 49 50 53 51
44 36 29 27 29 29 28 30 29 28 27 29 29 27 30 33 35 38 42 45 49 53 54 56 57 59 62 62 64 64 64 62 63 63 64 62 59 55 51 52 54 56 55
33 31 30 28 28 30 32 30 29 26 26 30 34 35 37 40 43 47 51 54 57 60 62 63 66 67 68 67 67 68 68 68 68 68 68 65 64 61 59 58 59 59 59
29 28 29 31 31 32 30 28 28 27 30 32 37 40 43 46 49 52 54 57 60 63 65 69 70 73 75 76 76 76 75 74 73 73 73 71 69 70 64 64 63 62 62
29 29 28 32 30 30 32 32 32 34 33 38 39 43 47 51 56 59 61 61 62 65 68 71 73 76 77 77 79 78 80 81 81 78 76 75 72 72 69 63 65 67 65
34 32 28 32 34 33 35 34 33 35 39 39 42 48 53 56 60 63 63 66 69 73 75 75 78 78 81 81 83 84 84 84 82 81 74 73 73 73 74 71 68 66 68
32 32 32 33 37 35 36 35 36 37 40 47 47 52 55 61 65 63 70 73 75 78 78 78 77 80 80 82 85 84 85 85 86 86 83 81 78 74 71 67 65 64 67
32 32 32 36 40 38 37 38 37 39 40 44 46 51 56 62 63 69 76 78 78 81 78 75 78 76 80 81 83 80 81 87 87 85 82 75 72 66 62 65 65 67 67
33 33 34 37 40 42 43 41 41 43 46 48 53 56 55 55 59 73 77 82 82 80 78 78 80 78 75 78 79 82 82 76 80 71 53 46 47 38 36 41 44 49 55
35 33 35 37 42 44 45 49 51 54 55 58 60 58 55 62 69 74 78 78 81 73 74 80 77 78 75 73 72 74 67 80 37 38 59 46 46 50 55 64 55 57 57
33 31 34 39 43 47 48 51 54 58 62 63 63 63 66 69 75 76 75 76 65 69 77 72 73 76 72 60 59 73 66 68 44 22 48 71 78 79 67 69 66 57 51
32 33 35 42 48 49 48 54 60 64 69 72 72 75 75 77 76 76 72 71 73 74 72 71 71 69 70 64 63 55 55 51 75 76 63 69 61 63 80 75 56 56 61
29 33 38 46 50 48 48 54 60 64 67 69 72 75 77 76 74 70 71 71 72 69 67 68 65 67 69 71 65 62 65 71 72 81 64 66 60 59 62 71 68 69 67
27 32 38 43 40 42 48 54 59 60 63 70 74 76 78 78 77 77 72 67 62 67 74 74 68 68 67 69 70 72 69 69 69 66 75 67 63 65 59 65 75 74 66
22 31 35 34 34 41 53 55 55 61 66 71 73 77 81 81 77 68 61 64 66 64 75 77 68 67 65 66 70 74 73 68 68 65 66 69 66 70 67 56 69 72 67
Wind_Direction_850mb
72 50 51 57 59 65 67 71 60 10 345 330 326 320 328 336 337 337 337 334 333 332 331 330 330 331 332 332 328 320 313 308 301 294 289 286 281 284 283 278 270 261 257
78 65 18 17 4 9 17 14 17 15 353 332 321 327 335 335 336 334 333 331 330 325 322 319 317 316 317 317 316 315 314 311 307 300 290 279 272 279 286 280 273 266 261
63 56 15 10 16 10 9 3 356 344 324 323 333 336 331 329 328 327 326 325 324 321 318 317 315 313 311 309 307 306 305 304 302 301 294 274 270 276 283 287 283 268 259
136 47 2 5 7 350 341 340 338 332 326 322 321 321 321 321 318 317 318 318 317 316 314 312 311 311 310 307 304 302 302 302 302 300 294 283 263 269 276 280 283 278 269
59 18 338 337 329 331 331 330 329 322 318 316 316 314 315 315 316 317 318 320 320 320 319 317 315 314 313 311 308 305 302 300 299 297 295 288 276 258 260 273 280 279 276
286 277 308 327 321 324 323 320 317 314 310 308 308 308 310 311 311 311 313 314 315 315 313 312 312 311 310 308 308 306 304 301 299 296 292 287 284 281 271 274 275 273 274
275 301 308 307 314 320 324 325 322 319 317 314 310 308 310 311 311 310 312 312 313 313 312 311 310 310 309 308 307 305 303 300 298 296 295 290 285 281 276 279 279 275 271
289 296 306 316 319 319 316 317 322 321 317 316 313 312 312 309 311 309 315 314 315 314 313 313 313 311 309 307 306 304 302 301 297 294 290 287 286 283 280 278 280 278 276
286 292 301 309 320 325 324 327 327 324 318 315 311 317 312 314 311 310 313 312 313 313 315 313 314 311 309 306 306 303 300 298 296 295 293 289 286 282 281 279 278 279 278
282 295 310 313 315 316 311 320 320 320 322 310 317 322 320 311 309 316 321 318 322 325 325 323 328 322 319 315 309 307 304 301 300 297 292 286 286 285 282 280 280 276 276
273 297 310 313 314 315 312 313 315 317 312 315 320 323 320 319 322 325 328 328 328 328 325 322 321 319 318 316 313 311 309 307 303 299 294 290 285 284 280 279 279 278 276
271 294 306 316 318 321 321 317 314 313 312 317 322 328 330 332 334 332 328 325 325 322 320 319 318 317 314 312 310 306 304 303 302 300 297 293 291 286 282 278 277 277 276
272 288 308 316 322 325 324 324 321 319 320 318 321 327 328 328 327 327 326 325 324 322 320 318 315 313 312 311 309 307 305 302 298 296 293 294 293 288 283 279 277 275 274
277 295 309 317 321 321 323 321 322 320 321 319 320 323 322 323 323 323 324 323 321 320 319 318 317 315 312 311 308 305 302 300 298 295 292 288 287 286 283 280 278 276 274
281 295 305 311 315 322 319 323 315 314 314 316 318 319 318 319 319 319 321 324 324 323 321 319 317 315 314 312 309 307 304 300 295 292 289 286 283 281 281 279 276 276 274
285 297 304 308 314 313 314 312 312 313 315 317 318 316 318 322 322 323 323 324 322 320 319 317 315 313 309 307 304 302 300 298 297 295 291 288 282 277 275 277 276 275 273
290 293 302 307 309 310 311 314 312 315 317 317 318 318 320 320 319 321 322 324 323 320 319 317 314 312 310 309 306 304 302 299 297 295 295 290 286 281 278 276 275 275 273
277 285 298 300 302 308 312 312 314 317 315 314 318 318 319 319 320 321 322 322 320 318 318 317 316 313 310 308 306 305 303 303 302 299 295 294 294 290 285 282 278 275 270
280 284 293 297 302 306 310 311 314 311 309 310 313 317 320 319 321 320 319 318 320 320 320 320 319 316 313 311 309 307 302 301 300 299 302 301 292 288 284 275 271 269 267
288 287 290 295 297 307 308 308 305 303 308 314 320 322 322 319 313 312 317 319 322 323 320 321 319 318 316 314 311 307 307 307 302 305 296 304 294 292 278 274 279 275 270
296 287 289 294 303 308 308 308 308 316 320 321 322 323 321 312 314 319 320 322 321 319 316 316 315 315 313 314 312 311 306 306 302 293 296 289 287 285 285 290 292 286 279
300 293 296 299 308 308 308 311 319 322 322 321 323 320 320 322 323 323 322 318 319 311 309 313 312 311 308 309 307 306 312 303 316 295 291 298 295 300 296 292 296 296 290
305 301 300 306 309 309 313 317 317 318 319 323 324 324 325 323 323 321 320 318 311 311 312 310 310 308 304 302 303 296 302 295 304 300 296 298 302 290 294 302 293 287 286
291 293 298 304 308 312 314 315 319 321 323 323 322 324 323 324 323 323 320 317 316 314 313 309 308 304 305 303 301 293 287 290 294 303 299 296 297 293 294 297 295 292 289
286 294 297 300 302 304 310 315 319 320 321 322 324 324 324 326 326 325 324 320 315 306 305 306 307 304 302 300 298 298 292 289 289 290 299 301 300 296 285 289 299 299 293
290 291 294 302 305 308 311 315 319 322 325 326 327 327 328 327 327 325 324 317 312 309 306 308 304 301 301 299 297 296 293 285 288 290 292 298 300 297 301 298 298 298 295